Location: Meanaryar
(48.4161°N, 4.7315°W)
Time: 09:37:00
(UTC+00:00)

Cosmos 1092 Rocket - Pass Details

Date: 22 January 2021
Orbit: 954 x 995 km, 83.0° (Epoch: 02 March)

Event Time Altitude Azimuth Distance (km) Brightness Sun altitude
Rises 17:43:38 0° 144° (SE) 3,652 6.9 -7.0°
Reaches altitude 10° 17:46:41 10° 130° (SE) 2,703 6.0 -7.5°
Maximum altitude 17:51:15 22° 82° (E) 1,965 5.0 -8.2°
Drops below altitude 10° 17:55:47 10° 34° (NNE) 2,701 5.8 -8.9°
Sets 17:58:49 0° 20° (NNE) 3,648 6.6 -9.4°
